Location: Unspecified
(0.0000°N, 0.0000°E)
Time: 00:29:56
(UTC+00:00)

Hubble Space Telescope - Pass Details

Date: 21 June 2017
Orbit: 538 x 542 km, 28.5° (Epoch: 19 August)

Event Time Altitude Azimuth Distance (km) Brightness Sun altitude
Exits shadow 04:00:59 30° 112° (ESE) 971 2.3 -27.5°
Drops below altitude 10° 04:03:38 10° 82° (E) 1,788 4.3 -26.9°
Sets 04:06:00 0° 73° (ENE) 2,678 5.6 -26.4°
